Weather History for Columbia, SC

Change the Weather History Date:

Thursday, November 15, 2012

  Actual Average Record
Temperature  
Mean Temperature 46 °F 55 °F  
Max Temperature 50 °F 68 °F 86 °F (1993)
Min Temperature 42 °F 42 °F 24 °F (1969)
Degree Days  
Heating Degree Days 19 10  
Month to date heating degree days 161 129  
Since 1 July heating degree days 241 249  
Cooling Degree Days 0 0  
Month to date cooling degree days 0 14  
Year to date cooling degree days 2505 2166  
Moisture  
Dew Point 39 °F    
Average Humidity 71    
Maximum Humidity 89    
Minimum Humidity 52    
Precipitation  
Precipitation 1.36 in 0.09 in 1.98 in (2006)
Month to date precipitation 1.55 1.32  
Year to date precipitation 39.18 39.95  
Sea Level Pressure  
Sea Level Pressure 30.27 in    
Wind  
Wind Speed 6 mph (North)    
Max Wind Speed 17 mph    
Max Gust Speed 25 mph    
Visibility 7 miles    
Events Rain , Thunderstorm    
T = Trace of Precipitation, MM = Missing Value Source: NWS Daily Summary

Daily Weather History Graph

Daily Weather History Graph

Search for Another Location

Airport:

Trip Planner

Search our weather history database for the weather conditions in past years. The results will help you decide how hot, cold, wet, or windy it might be!

Date:

Astronomy

Nov. 15, 2012 Rise Set
Actual Time 6:57 AM EST 5:20 PM EST
Civil Twilight 6:30 AM EST 5:47 PM EST
Nautical Twilight 6:00 AM EST 6:17 PM EST
Astronomical Twilight 5:30 AM EST 6:47 PM EST
Moon 8:48 AM EST (11/15) 7:13 PM EST (11/15)
Length of Visible Light 11h 16m
Length of Day
10h 23m
Waxing Crescent, 5% of the Moon is Illuminated
Nov 15
Waxing Crescent
Nov 20
First Quarter
Nov 28
Full
Dec 6
Last Quarter
Dec 13
New

Hourly Weather History & Observations

Time (EST) Temp. Windchill Dew Point Humidity Pressure Visibility Wind Dir Wind Speed Gust Speed Precip Events Conditions
12:56 AM 50.0 °F - 34.0 °F 54% 30.27 in 10.0 mi NE 8.1 mph 18.4 mph N/A   Overcast
1:56 AM 50.0 °F - 35.1 °F 57% 30.25 in 10.0 mi NE 8.1 mph - N/A   Overcast
2:56 AM 46.0 °F 41.0 °F 39.0 °F 76% 30.31 in 5.0 mi WNW 10.4 mph - 0.01 in Rain Rain
3:07 AM 44.6 °F 38.1 °F 41.0 °F 87% 30.32 in 1.8 mi West 13.8 mph - 0.08 in Rain Heavy Rain
3:13 AM 44.6 °F 39.2 °F 41.0 °F 87% 30.26 in 2.0 mi North 10.4 mph - 0.12 in Rain , Thunderstorm Heavy Thunderstorms and Rain
3:30 AM 44.6 °F 39.7 °F 41.0 °F 87% 30.26 in 5.0 mi North 9.2 mph - 0.19 in Rain , Thunderstorm Light Thunderstorms and Rain
3:40 AM 44.6 °F 40.2 °F 41.0 °F 87% 30.26 in 4.0 mi NNW 8.1 mph 16.1 mph 0.21 in Rain , Thunderstorm Thunderstorms and Rain
3:56 AM 44.1 °F 37.7 °F 39.9 °F 85% 30.31 in 4.0 mi NW 12.7 mph 23.0 mph 0.24 in Rain , Thunderstorm Thunderstorms and Rain
4:02 AM 42.8 °F 35.4 °F 39.2 °F 87% 30.30 in 2.0 mi NW 15.0 mph 20.7 mph 0.07 in Rain , Thunderstorm Heavy Thunderstorms and Rain
4:20 AM 42.8 °F 36.2 °F 39.2 °F 87% 30.26 in 2.0 mi North 12.7 mph 25.3 mph 0.29 in Rain , Thunderstorm Thunderstorms and Rain
4:56 AM 43.0 °F 36.8 °F 39.9 °F 89% 30.26 in 3.0 mi NNE 11.5 mph - 0.44 in Rain Heavy Rain
5:24 AM 42.8 °F 40.1 °F 39.2 °F 87% 30.26 in 3.0 mi Variable 4.6 mph - 0.14 in Rain , Thunderstorm Heavy Thunderstorms and Rain
5:56 AM 43.0 °F 41.3 °F 39.9 °F 89% 30.28 in 3.0 mi Variable 3.5 mph - 0.29 in Rain , Thunderstorm Heavy Thunderstorms and Rain
6:49 AM 42.8 °F 38.6 °F 39.2 °F 87% 30.26 in 3.0 mi Variable 6.9 mph - 0.26 in Rain Heavy Rain
6:56 AM 42.1 °F 39.2 °F 39.9 °F 92% 30.27 in 4.0 mi North 4.6 mph - 0.28 in Rain Rain
7:56 AM 42.1 °F 38.4 °F 39.9 °F 92% 30.27 in 3.0 mi North 5.8 mph - 0.09 in Rain Rain
8:56 AM 43.0 °F 39.5 °F 39.9 °F 89% 30.29 in 8.0 mi North 5.8 mph - 0.01 in   Overcast
9:56 AM 44.1 °F 39.5 °F 39.9 °F 85% 30.29 in 6.0 mi North 8.1 mph - N/A   Overcast
10:56 AM 44.1 °F 39.5 °F 39.9 °F 85% 30.30 in 6.0 mi NNW 8.1 mph - N/A   Overcast
11:56 AM 44.1 °F 38.6 °F 39.9 °F 85% 30.28 in 6.0 mi North 10.4 mph - N/A   Overcast
12:56 PM 45.0 °F 40.1 °F 39.0 °F 80% 30.27 in 6.0 mi North 9.2 mph - N/A   Haze
1:05 PM 44.6 °F 40.7 °F 39.2 °F 81% 30.26 in 8.0 mi North 6.9 mph - N/A   Overcast
1:56 PM 46.9 °F - 39.9 °F 77% 30.25 in 9.0 mi North 8.1 mph - N/A   Overcast
2:56 PM 48.0 °F - 39.9 °F 74% 30.24 in 10.0 mi NNE 5.8 mph - N/A   Overcast
3:56 PM 50.0 °F - 39.9 °F 68% 30.24 in 10.0 mi NE 4.6 mph - N/A   Mostly Cloudy
4:56 PM 50.0 °F - 41.0 °F 71% 30.24 in 10.0 mi Calm Calm - N/A   Scattered Clouds
5:56 PM 48.0 °F - 41.0 °F 77% 30.24 in 10.0 mi Calm Calm - N/A   Scattered Clouds
6:56 PM 48.9 °F - 41.0 °F 74% 30.25 in 10.0 mi Calm Calm - N/A   Mostly Cloudy
7:56 PM 48.0 °F - 39.9 °F 74% 30.26 in 10.0 mi NNE 8.1 mph - N/A   Mostly Cloudy
8:56 PM 48.0 °F - 39.9 °F 74% 30.28 in 10.0 mi North 6.9 mph - N/A   Overcast
9:56 PM 46.9 °F - 39.9 °F 77% 30.27 in 10.0 mi North 4.6 mph - N/A   Overcast
10:56 PM 46.9 °F - 37.9 °F 71% 30.27 in 10.0 mi NNW 3.5 mph - N/A   Overcast
11:56 PM 46.0 °F 43.9 °F 37.9 °F 73% 30.27 in 10.0 mi North 4.6 mph - N/A   Overcast